This is the latest recevied weather packets stored in our database for station/object IK6ZNK-3. If no packets are shown the sender has not sent any weather packets the latest 10 day(s).
| Time | Temp. | Humidity | Pressure | Rain* | Wind** | Luminosity | Snow |
|---|---|---|---|---|---|---|---|
| 1777656007 | 13.33° C | 45% | 1014.9 hPa | 0 mm | - | - | - |
| 1777655407 | 13.33° C | 45% | 1015 hPa | 0 mm | - | - | - |
| 1777654808 | 13.89° C | 42% | 1014.9 hPa | 0 mm | - | - | - |
| 1777654211 | 13.89° C | 41% | 1015 hPa | 0 mm | - | - | - |
| 1777653609 | 14.44° C | 40% | 1015.1 hPa | 0 mm | - | - | - |
| 1777653008 | 14.44° C | 40% | 1015 hPa | 0 mm | - | - | - |
| 1777652407 | 13.89° C | 39% | 1015.1 hPa | 0 mm | - | - | - |
| 1777651807 | 13.89° C | 39% | 1015 hPa | 0 mm | - | - | - |
| 1777651209 | 14.44° C | 38% | 1015 hPa | 0 mm | - | - | - |
| 1777650608 | 13.89° C | 40% | 1015 hPa | 0 mm | - | - | - |
| 1777650007 | 13.89° C | 39% | 1015.1 hPa | 0 mm | - | - | - |
| 1777649408 | 13.89° C | 42% | 1015.1 hPa | 0 mm | - | - | - |
| 1777648808 | 13.89° C | 43% | 1015.3 hPa | 0 mm | - | - | - |
| 1777648210 | 14.44° C | 43% | 1015.2 hPa | 0 mm | - | - | - |
| 1777647610 | 14.44° C | 43% | 1015.3 hPa | 0 mm | - | - | - |
| 1777647010 | 13.89° C | 43% | 1015.6 hPa | 0 mm | - | - | - |
| 1777646410 | 13.89° C | 45% | 1015.5 hPa | 0 mm | - | - | - |
| 1777645809 | 13.89° C | 44% | 1015.5 hPa | 0 mm | - | - | - |
| 1777645207 | 13.89° C | 45% | 1015.6 hPa | 0 mm | - | - | - |
| 1777644609 | 14.44° C | 45% | 1015.6 hPa | 0 mm | - | - | - |
| 1777644009 | 13.89° C | 43% | 1015.7 hPa | 0 mm | - | - | - |
| 1777643410 | 13.89° C | 47% | 1015.7 hPa | 0 mm | - | - | - |
| 1777642812 | 13.89° C | 46% | 1015.9 hPa | 0 mm | - | - | - |
| 1777642209 | 13.89° C | 43% | 1015.9 hPa | 0 mm | - | - | - |
| 1777641610 | 13.89° C | 43% | 1015.9 hPa | 0 mm | - | - | - |
* Rain latest hour (hover to see other rain measurements)
** Current wind speed in m/s (hover to see current wind gust speed)